Temperature
16 16 16 16 16 16 16 16 15 15 15 15 15 15 15 15 15 15 15 15 15 15 15 15 15 15 15 15 15 15 15 15 15 15 15 15 15 15 14 14 14 14 14
16 16 16 16 16 15 15 15 15 15 15 15 15 15 15 15 15 15 15 15 15 15 15 15 15 15 15 15 15 15 15 15 15 14 14 14 14 14 14 14 14 14 14
16 16 16 15 15 15 15 15 15 15 15 15 15 15 15 15 15 15 15 15 15 15 15 15 15 15 14 14 14 14 14 14 14 14 14 14 14 14 14 14 14 14 14
15 15 15 15 15 15 15 15 15 15 15 15 15 15 14 14 15 15 15 15 15 15 15 14 14 14 14 14 14 14 14 14 14 14 14 14 14 14 14 13 13 13 13
15 15 15 15 15 15 15 15 15 15 15 15 14 14 14 14 14 14 14 14 14 14 14 14 14 14 14 14 14 14 14 14 14 14 14 14 14 13 13 13 13 13 13
15 15 15 15 15 15 15 15 14 14 14 14 14 14 14 14 14 14 14 14 14 14 14 14 14 14 14 14 14 14 14 13 13 13 13 13 13 13 13 13 13 13 13
15 15 15 15 14 14 14 14 14 14 14 14 14 14 14 14 14 14 14 14 14 14 14 14 14 14 14 14 14 14 13 13 13 13 13 13 13 13 13 13 13 13 13
14 14 14 14 14 14 14 14 14 14 14 14 14 14 14 14 13 14 14 14 14 14 14 14 14 14 14 13 13 13 13 13 13 13 13 13 13 13 13 13 13 13 13
14 14 14 14 14 14 14 14 14 14 14 14 14 14 14 13 13 13 13 13 13 13 13 13 13 13 13 13 13 13 13 13 13 13 13 13 13 13 12 12 12 12 12
14 14 14 14 14 14 14 14 14 14 14 14 14 14 14 14 13 13 13 13 13 13 13 13 13 13 13 13 13 13 13 13 13 13 13 13 12 12 12 12 12 12 12
14 14 14 14 14 14 14 14 14 14 14 14 14 14 14 14 14 13 13 12 13 13 13 13 13 13 13 13 13 13 13 13 12 12 12 12 12 12 12 12 12 12 12
14 14 14 14 14 14 14 14 14 14 14 14 14 14 14 14 13 13 13 12 12 12 12 12 12 12 12 12 12 12 12 12 12 12 12 12 12 12 12 12 11 11 11
14 14 14 14 14 14 13 13 13 14 14 14 14 13 13 13 13 13 13 13 12 12 12 12 12 12 12 12 12 12 12 12 12 12 12 12 12 12 12 11 11 11 11
14 14 14 14 14 13 13 13 13 13 13 13 13 13 13 13 13 13 13 13 12 12 12 12 12 12 12 12 12 12 12 12 12 12 12 12 12 12 11 11 11 11 11
14 14 14 14 14 13 13 13 13 13 13 13 13 13 13 13 13 13 13 13 13 12 12 12 12 12 12 12 12 12 12 12 12 12 12 12 11 11 11 11 11 11 11
14 14 14 13 13 13 13 13 13 13 13 13 13 13 13 13 13 13 13 13 13 13 12 12 12 12 12 12 11 12 12 12 12 12 11 11 11 11 11 11 11 11 11
13 13 13 13 13 13 13 13 13 13 13 13 13 13 13 13 13 13 13 13 13 12 12 12 12 11 11 11 11 11 11 12 11 11 11 11 11 11 11 11 11 11 11
13 13 13 13 13 13 13 13 13 13 13 13 13 13 13 13 13 13 13 13 13 12 12 12 12 11 11 11 11 11 11 11 11 11 11 11 11 11 11 11 11 11 10
13 13 13 13 13 13 13 13 13 13 13 13 13 13 13 13 12 12 12 12 12 12 12 12 12 12 11 11 11 11 11 11 11 11 10 10 10 11 10 10 10 10 10
13 12 12 12 12 12 12 12 12 12 12 12 12 12 12 12 12 12 12 12 12 12 12 12 12 11 11 11 11 11 11 11 11 10 10 10 10 10 10 10 10 10 10
12 12 12 12 12 12 12 12 12 12 12 12 12 12 12 12 12 12 12 12 12 12 12 11 11 11 11 11 11 11 11 10 10 10 10 10 10 10 10 10 10 10 10
12 12 12 12 12 11 11 11 11 12 12 12 12 12 12 12 12 12 11 12 12 12 11 11 11 11 11 11 11 10 10 10 10 10 10 10 10 10 10 10 10 10 10
11 11 11 11 11 11 11 11 11 11 11 11 11 11 11 11 11 11 11 11 11 11 11 11 11 11 11 11 11 11 10 10 10 10 10 10 10 10 10 10 10 10 10
11 11 11 11 11 11 11 11 11 11 11 11 11 11 11 11 11 11 11 11 11 11 10 10 11 11 10 10 10 10 10 10 10 10 10 10 10 10 10 10 10 10 10
11 10 10 11 11 11 10 10 10 10 10 10 10 10 10 10 10 10 10 10 10 10 10 10 10 10 10 10 10 10 10 10 10 10 10 9 10 10 10 10 10 10 10
10 10 10 10 10 10 10 10 10 10 10 10 10 10 10 10 10 10 10 10 10 10 10 10 10 10 10 10 10 9 9 9 9 9 10 9 9 9 9 10 10 10 10
Wind_Speed
2 2 2 2 3 4 3 3 4 5 6 6 7 7 6 7 7 7 7 9 9 9 10 10 10 10 10 11 11 11 11 11 11 12 12 12 13 12 12 12 11 10 10
3 3 2 3 3 4 4 4 4 5 4 5 5 5 5 6 7 7 7 8 10 10 9 9 9 10 10 11 11 11 11 11 12 12 12 12 12 12 12 11 11 11 10
5 4 3 2 3 5 5 5 5 5 4 5 4 4 4 5 6 6 6 7 8 9 9 9 10 9 9 10 10 10 10 11 11 11 12 12 11 11 11 11 11 10 10
6 5 3 2 4 5 5 3 3 4 4 4 3 3 3 4 4 5 6 6 6 7 8 9 9 9 9 10 10 10 10 10 10 11 11 11 11 11 11 10 10 10 10
6 6 3 3 5 5 3 3 3 3 3 3 3 3 3 2 2 4 4 5 6 6 7 8 9 9 9 9 9 9 10 10 10 10 10 10 10 10 10 10 10 10 10
6 6 4 4 5 4 4 3 4 3 3 2 4 4 3 3 2 2 3 4 5 6 6 7 8 7 9 9 9 9 9 9 9 10 10 10 10 10 10 10 10 10 10
6 5 4 3 4 4 3 3 3 4 3 2 4 4 4 4 4 3 3 3 4 4 6 6 6 6 6 7 8 9 8 8 9 9 9 10 10 9 9 9 10 10 10
5 5 4 3 3 3 4 3 3 2 1 2 2 2 2 4 4 4 3 2 2 4 4 5 6 6 6 6 7 8 8 8 8 9 10 10 9 9 9 9 10 10 10
4 4 4 3 3 3 3 2 3 3 2 1 1 3 3 2 1 3 3 3 3 3 3 4 5 5 6 6 6 8 9 8 8 8 8 8 8 8 9 9 10 10 10
4 4 3 3 3 2 3 2 2 2 3 1 1 1 2 3 3 1 2 3 3 3 2 3 4 6 6 7 8 9 10 10 8 8 8 8 8 8 9 9 9 9 9
2 3 3 3 3 2 2 2 2 2 2 2 1 1 2 2 2 3 1 1 2 2 1 2 3 4 5 6 7 9 10 10 9 9 8 8 7 7 7 8 8 8 8
1 2 3 3 3 2 2 2 2 3 2 2 2 2 2 2 2 2 2 2 1 1 2 2 2 3 4 5 7 8 9 9 9 8 8 8 8 7 7 7 7 7 7
1 3 3 3 2 2 3 2 2 2 2 2 2 1 2 2 3 3 4 3 2 0 1 1 1 2 4 5 6 7 8 8 8 7 7 7 7 7 7 7 7 7 7
3 3 3 3 3 3 3 3 2 2 2 2 2 2 1 2 2 3 4 4 3 0 0 1 1 1 4 5 6 7 7 7 6 6 6 6 6 6 6 6 6 6 6
2 3 3 3 3 3 3 3 2 2 2 2 2 2 2 1 1 2 3 4 4 3 2 2 1 1 3 5 6 6 6 6 6 5 5 5 5 5 5 5 5 6 6
2 2 2 2 2 2 2 3 2 2 2 2 2 2 2 1 1 1 3 3 3 4 3 3 2 2 3 4 5 6 6 5 5 4 4 4 4 4 5 5 5 5 5
3 3 3 3 3 2 2 2 2 2 3 2 2 3 3 2 2 1 2 2 3 3 3 2 1 2 3 3 4 5 5 5 4 4 4 4 3 3 4 4 4 3 3
3 3 3 3 2 2 2 3 2 2 3 3 2 3 3 2 2 2 2 2 3 3 4 4 2 2 2 4 4 3 3 4 5 4 4 4 4 4 3 3 3 3 3
2 2 3 3 3 2 2 3 3 3 2 2 3 3 3 3 3 2 3 3 3 3 3 4 3 2 1 3 2 2 2 1 3 4 5 5 5 4 4 3 3 2 2
2 3 3 3 3 3 3 3 3 3 2 2 2 3 3 4 4 4 4 4 3 3 3 4 3 2 2 2 3 2 1 1 2 3 4 5 5 5 4 4 4 3 3
2 3 3 2 2 2 2 3 3 2 3 2 2 2 3 3 4 4 3 4 4 4 3 3 3 3 2 3 4 3 3 1 2 2 1 2 3 4 5 6 5 5 5
1 1 2 2 2 2 3 3 3 3 3 3 2 2 2 3 3 4 5 6 7 6 5 4 3 4 5 5 4 4 3 2 2 2 2 2 3 3 5 7 8 7 7
0 0 1 1 2 2 2 3 3 2 2 3 3 2 2 2 3 3 4 4 5 6 8 7 6 6 6 7 7 6 5 4 4 3 2 3 2 3 6 8 10 10 9
1 1 1 2 2 2 3 2 3 2 2 3 3 3 3 2 2 3 3 3 2 3 5 5 6 7 6 7 9 8 7 4 1 1 3 3 3 3 4 7 10 11 11
1 1 2 2 2 3 3 3 2 2 2 3 3 3 3 3 3 3 4 3 3 2 3 5 5 6 7 8 8 5 4 3 2 3 3 3 3 2 2 3 8 11 12
2 2 2 2 3 3 4 3 3 2 2 2 2 3 4 4 4 4 4 5 4 4 2 2 2 3 4 6 9 8 8 6 3 3 4 4 2 1 2 2 3 7 9
Wind_Direction
113 110 101 91 78 76 76 77 79 75 70 76 86 90 87 84 79 76 76 84 88 88 89 89 92 92 92 92 90 87 87 86 86 84 81 80 79 79 80 81 84 83 83
116 105 93 80 77 82 85 91 92 87 76 76 73 77 87 95 87 81 75 74 78 83 88 89 90 90 90 92 94 93 91 89 89 86 83 82 81 81 82 81 81 81 81
108 105 97 85 82 87 87 84 78 78 78 75 69 67 78 91 94 87 81 75 71 74 82 86 88 90 94 98 96 93 92 91 91 90 88 85 84 83 83 81 81 81 79
100 102 102 90 89 88 87 82 78 78 72 73 68 58 67 79 89 91 86 85 81 76 73 79 84 89 99 100 99 98 96 93 93 93 90 87 85 83 82 81 81 79 76
98 100 100 95 91 82 76 88 80 92 86 77 77 62 53 65 74 89 88 89 89 84 78 77 79 86 96 99 100 100 99 96 95 94 90 88 87 83 82 83 81 78 76
97 99 97 91 93 87 75 77 83 72 84 90 85 66 44 39 59 70 88 84 90 94 84 78 73 76 87 94 98 98 100 100 99 96 94 92 89 85 83 83 81 79 75
101 100 101 92 94 100 104 104 94 81 66 78 81 54 32 33 42 38 60 76 78 85 84 79 74 72 76 87 97 99 98 103 102 99 95 92 88 86 85 83 82 78 74
107 114 113 114 109 104 101 103 104 97 78 78 108 96 48 17 15 26 36 71 74 76 78 81 78 76 76 76 86 95 95 98 102 98 95 90 88 87 85 83 81 76 73
114 114 122 126 130 130 139 139 130 126 132 37 99 136 137 182 327 3 21 47 63 66 66 77 82 82 83 78 80 87 90 90 97 94 94 92 89 90 87 82 80 76 73
127 128 133 136 140 142 145 155 135 138 140 156 353 52 141 148 145 95 360 20 48 64 65 83 88 88 90 89 89 93 90 83 86 89 90 89 87 89 86 82 82 79 77
152 154 158 153 153 152 160 149 128 133 146 159 166 128 91 86 108 139 159 3 28 24 47 81 94 92 98 102 100 100 92 83 81 84 84 83 82 85 84 85 83 81 80
185 177 169 171 171 163 164 161 150 150 158 151 152 152 151 149 159 142 155 165 148 347 26 60 99 107 109 113 113 110 101 90 86 86 83 78 78 81 85 84 81 81 82
204 211 179 176 174 178 172 163 156 163 163 157 164 177 180 184 164 151 145 153 154 257 22 26 58 122 121 123 124 122 110 101 94 88 86 81 79 80 83 81 78 76 78
204 205 188 182 181 173 173 165 167 181 166 172 179 173 182 199 170 162 159 150 140 116 18 253 9 121 132 136 140 132 119 114 108 96 89 88 85 82 81 81 78 75 78
203 191 189 184 187 181 172 164 170 190 177 188 192 186 182 185 170 180 164 159 157 171 210 221 208 200 152 149 152 143 132 131 123 113 102 96 96 93 91 90 85 82 83
198 178 179 179 181 178 165 164 175 186 175 198 192 181 185 184 165 163 173 175 163 164 188 210 205 185 157 152 158 151 148 148 141 136 130 119 109 109 111 105 96 93 91
191 181 180 175 171 163 166 170 187 189 185 202 204 188 195 175 161 167 157 158 157 149 163 199 183 163 148 147 143 153 163 161 164 166 163 158 148 135 127 123 114 110 107
195 188 171 165 172 172 179 177 191 195 189 198 205 194 206 186 182 184 173 171 171 166 159 168 179 161 163 167 157 156 162 175 182 189 188 185 179 171 153 142 137 128 119
199 183 160 167 177 180 183 187 186 205 201 199 198 196 206 179 197 195 186 179 178 171 157 160 173 166 145 155 142 158 156 169 195 202 204 204 200 192 186 177 168 162 151
182 179 178 184 183 184 184 192 199 208 202 201 199 199 202 192 199 196 194 189 174 161 158 159 159 162 159 155 143 156 183 237 233 211 205 203 204 202 199 199 199 197 191
180 180 174 182 186 190 201 201 200 197 187 198 208 212 215 207 202 195 194 186 173 169 163 171 170 157 166 165 185 182 192 205 256 223 207 216 209 215 219 219 216 216 212
190 155 169 183 194 218 218 195 184 183 186 190 210 233 238 225 222 218 205 185 174 173 178 179 188 190 199 195 181 177 167 163 240 235 185 240 203 223 233 225 225 225 225
194 115 202 184 205 241 221 205 208 182 189 204 211 223 247 249 229 221 223 207 196 191 183 184 193 206 200 197 182 184 189 192 214 206 173 231 218 235 240 235 231 229 229
193 207 234 222 215 254 258 238 218 193 204 217 215 211 215 238 229 192 179 180 200 207 204 197 203 214 210 197 191 193 193 187 198 192 167 208 219 235 246 238 236 233 234
197 222 233 226 229 262 264 241 210 189 214 236 232 222 210 220 235 183 165 180 202 244 235 220 223 229 223 204 186 162 156 159 211 226 191 196 220 235 257 247 242 238 236
211 220 246 239 230 249 264 248 219 194 214 236 244 238 231 220 213 188 180 183 202 227 221 230 245 248 224 204 190 185 183 183 189 221 205 188 197 171 256 267 246 237 235
Height
1534 1534 1534 1535 1535 1535 1535 1535 1535 1535 1536 1536 1536 1536 1536 1535 1535 1534 1534 1534 1533 1533 1532 1531 1531 1531 1530 1530 1530 1530 1529 1529 1529 1528 1528 1528 1527 1527 1527 1527 1527 1528 1528
1534 1535 1535 1535 1535 1535 1536 1536 1536 1537 1537 1537 1537 1537 1537 1537 1537 1536 1535 1535 1535 1534 1533 1533 1532 1532 1532 1532 1532 1531 1531 1531 1530 1530 1530 1530 1529 1529 1529 1529 1529 1529 1529
1535 1535 1535 1535 1536 1536 1536 1537 1537 1538 1538 1538 1538 1538 1538 1538 1538 1538 1537 1536 1536 1536 1535 1534 1534 1533 1533 1533 1533 1533 1533 1533 1532 1532 1532 1532 1531 1531 1531 1530 1530 1530 1529
1535 1535 1536 1536 1536 1536 1537 1537 1538 1538 1539 1539 1539 1540 1540 1539 1539 1539 1539 1538 1538 1537 1537 1536 1535 1535 1534 1535 1535 1535 1535 1534 1534 1534 1534 1533 1533 1533 1532 1532 1531 1531 1530
1535 1535 1536 1536 1536 1537 1537 1537 1538 1539 1539 1540 1540 1540 1541 1541 1541 1540 1540 1540 1539 1539 1538 1538 1537 1537 1536 1536 1536 1536 1536 1536 1536 1536 1535 1535 1534 1534 1533 1533 1532 1532 1531
1535 1535 1536 1536 1536 1537 1537 1538 1538 1539 1540 1540 1541 1541 1541 1541 1542 1541 1541 1541 1541 1540 1540 1539 1539 1538 1538 1538 1538 1538 1538 1537 1537 1537 1537 1536 1536 1535 1535 1534 1534 1533 1532
1535 1535 1535 1536 1536 1537 1537 1538 1539 1539 1540 1541 1541 1542 1542 1542 1542 1542 1542 1542 1542 1542 1541 1541 1540 1540 1540 1539 1539 1539 1539 1539 1539 1538 1538 1538 1537 1537 1536 1535 1535 1534 1533
1535 1535 1535 1536 1536 1537 1537 1538 1539 1539 1540 1541 1541 1541 1542 1544 1543 1543 1543 1543 1543 1542 1542 1542 1541 1541 1541 1541 1541 1540 1540 1540 1540 1540 1539 1539 1538 1538 1537 1536 1536 1534 1533
1535 1535 1535 1536 1536 1536 1537 1537 1538 1539 1539 1540 1541 1542 1542 1542 1543 1544 1543 1543 1543 1543 1542 1542 1542 1542 1542 1542 1542 1542 1541 1541 1541 1541 1540 1540 1539 1539 1538 1537 1536 1535 1534
1534 1535 1535 1535 1536 1536 1536 1537 1538 1538 1539 1539 1540 1541 1542 1541 1542 1543 1544 1544 1544 1543 1543 1542 1542 1542 1542 1542 1542 1542 1542 1542 1542 1542 1541 1541 1540 1539 1539 1538 1537 1536 1535
1534 1534 1535 1535 1535 1535 1536 1536 1537 1537 1538 1538 1539 1540 1540 1540 1541 1541 1542 1543 1543 1543 1543 1543 1542 1542 1543 1543 1543 1543 1543 1543 1543 1542 1542 1541 1541 1540 1539 1539 1538 1537 1535
1533 1533 1534 1534 1535 1535 1535 1536 1536 1537 1537 1538 1538 1538 1539 1539 1540 1540 1541 1542 1542 1543 1543 1543 1543 1543 1543 1543 1543 1543 1543 1543 1543 1543 1543 1542 1541 1540 1540 1539 1538 1537 1536
1532 1532 1533 1533 1534 1534 1534 1535 1535 1536 1536 1537 1537 1537 1538 1538 1539 1539 1540 1540 1541 1542 1543 1543 1543 1543 1543 1543 1544 1544 1544 1544 1543 1543 1543 1542 1541 1541 1540 1539 1538 1537 1536
1530 1531 1532 1532 1533 1533 1533 1534 1534 1535 1535 1535 1536 1536 1536 1537 1538 1538 1539 1539 1540 1541 1541 1542 1542 1542 1543 1543 1544 1544 1544 1544 1543 1543 1543 1542 1542 1541 1540 1539 1538 1538 1537
1529 1529 1530 1530 1531 1531 1532 1532 1532 1533 1534 1534 1534 1535 1535 1536 1536 1537 1538 1538 1539 1539 1540 1540 1541 1541 1542 1542 1543 1544 1544 1543 1543 1543 1543 1542 1541 1541 1540 1539 1538 1538 1537
1527 1527 1528 1528 1529 1529 1530 1530 1530 1531 1532 1532 1533 1533 1533 1534 1534 1535 1536 1536 1537 1537 1537 1538 1539 1540 1541 1542 1542 1543 1543 1543 1543 1543 1542 1542 1541 1541 1540 1539 1539 1538 1537
1524 1525 1525 1526 1526 1527 1527 1528 1528 1529 1530 1530 1531 1531 1531 1532 1532 1533 1534 1534 1535 1536 1536 1537 1538 1539 1539 1540 1541 1541 1542 1542 1542 1542 1542 1541 1541 1540 1540 1539 1538 1538 1537
1522 1522 1523 1524 1524 1525 1525 1526 1526 1527 1527 1528 1528 1529 1529 1530 1530 1531 1532 1532 1533 1534 1535 1535 1536 1537 1537 1538 1539 1540 1540 1541 1541 1541 1541 1541 1540 1540 1539 1539 1538 1537 1537
1519 1520 1520 1521 1521 1522 1523 1523 1523 1524 1525 1525 1526 1526 1527 1527 1528 1529 1529 1530 1531 1532 1533 1533 1534 1534 1535 1536 1537 1538 1539 1539 1539 1539 1539 1539 1539 1539 1538 1538 1537 1537 1536
1516 1517 1517 1518 1519 1519 1520 1520 1521 1521 1522 1522 1523 1523 1524 1525 1525 1526 1526 1527 1528 1529 1530 1531 1531 1532 1533 1534 1535 1535 1536 1537 1537 1538 1537 1537 1538 1537 1537 1537 1536 1536 1535
1513 1514 1514 1515 1516 1516 1517 1517 1518 1518 1519 1519 1520 1520 1521 1522 1522 1523 1523 1524 1525 1526 1527 1527 1528 1529 1530 1531 1532 1533 1534 1534 1535 1535 1535 1536 1536 1536 1536 1535 1535 1535 1534
1511 1511 1511 1512 1513 1513 1514 1514 1515 1515 1515 1516 1516 1517 1518 1519 1519 1520 1520 1521 1522 1523 1523 1524 1525 1526 1527 1528 1529 1530 1531 1531 1532 1533 1533 1533 1533 1533 1533 1534 1533 1533 1533
1508 1508 1509 1509 1509 1510 1510 1511 1511 1512 1512 1512 1513 1513 1514 1515 1516 1516 1517 1518 1518 1519 1521 1522 1522 1522 1524 1525 1526 1527 1528 1528 1529 1530 1530 1530 1531 1531 1531 1531 1531 1531 1530
1505 1505 1505 1506 1506 1506 1507 1507 1508 1508 1508 1508 1509 1509 1510 1511 1512 1512 1513 1514 1515 1516 1517 1518 1519 1520 1521 1522 1523 1524 1525 1526 1527 1527 1527 1527 1527 1527 1528 1528 1528 1528 1528
1502 1502 1502 1502 1502 1503 1503 1503 1504 1504 1504 1504 1505 1505 1506 1507 1508 1508 1509 1510 1511 1512 1514 1514 1515 1516 1517 1518 1519 1520 1521 1521 1521 1523 1524 1524 1524 1524 1524 1524 1525 1525 1525
1499 1499 1499 1499 1499 1499 1499 1499 1500 1500 1500 1500 1501 1501 1502 1503 1503 1504 1505 1506 1506 1508 1509 1510 1511 1512 1513 1514 1514 1516 1517 1517 1518 1518 1519 1520 1520 1521 1521 1521 1521 1521 1521